Location: Unspecified
(0.0000°N, 0.0000°E)
Time: 23:19:50
(UTC+00:00)

NOSS 3-4 (A) - Pass Details

Date: 11 August 2024
Orbit: 801 x 1411 km, 63.4° (Epoch: 09 September)

Event Time Altitude Azimuth Distance (km) Brightness Sun altitude
Rises 20:09:11 0° 225° (SW) 3,473 6.7 -29.9°
Reaches altitude 10° 20:12:08 10° 238° (WSW) 2,466 6.1 -30.6°
Maximum altitude 20:16:41 26° 292° (WNW) 1,563 5.2 -31.7°
Drops below altitude 10° 20:21:04 10° 348° (NNW) 2,363 5.8 -32.7°
Sets 20:23:51 0° 1° (N) 3,298 6.5 -33.4°
